Miscellaneous Local Product
Issued by NWS Hastings, NE

Home | Current Version | Previous Version | Text Only | Print | Product List | Glossary Off
Versions: 1 2 3 4 5 6 7 8 9 10 11 12 13 14 15 16 17 18 19 20 21 22 23 24 25 26 27 28 29 30 31 32 33 34 35 36 37 38 39 40 41 42 43 44 45 46 47 48 49 50

468
AXUS43 KGID 222302
MISGRI

GID CWA HOURLY WEATHER ROUNDUP
NATIONAL WEATHER SERVICE HASTINGS NE
600 PM CDT SUN APR 22 2018

NOTE: "FAIR" INDICATES FEW OR NO CLOUDS BELOW 12,000 FEET WITH NO
SIGNIFICANT WEATHER AND/OR OBSTRUCTIONS TO VISIBILITY.

...SOUTH CENTRAL NEBRASKA...

CITY           SKY/WX    TMP DP  RH WIND       PRES   REMARKS
GRAND ISLAND   SUNNY     65  36  34 E12       30.14F
KEARNEY        SUNNY     62  38  40 E10       30.15F
HASTINGS       SUNNY     64  36  35 SE10      30.14F
ORD            SUNNY     63  32  31 SE6       30.14F
YORK             N/A     64  34  32 CALM      30.15S
AURORA         CLOUDY    65  32  29 SE13      30.14S
LEXINGTON      CLOUDY    60  38  44 S5        30.16F
HOLDREGE       MOSUNNY   60  38  44 CALM      30.15S
HEBRON         CLOUDY    63  36  37 E7        30.14F

...NEBRASKA PANHANDLE...

CITY           SKY/WX    TMP DP  RH WIND       PRES   REMARKS
CHADRON        SUNNY     67  37  33 VRB5      30.05F
ALLIANCE       SUNNY     60  39  45 S5        30.09S
SCOTTSBLUFF    SUNNY     63  38  39 E6        30.09F
SIDNEY         MOSUNNY   58  31  35 SE8       30.12F

...WESTERN AND NORTH CENTRAL NEBRASKA...

CITY           SKY/WX    TMP DP  RH WIND       PRES   REMARKS
VALENTINE      MOSUNNY   62  36  37 S12       30.13F
AINSWORTH      MOSUNNY   60  39  46 S10G18    30.15F
ONEILL         SUNNY     65  30  26 SE5       30.16F
BROKEN BOW     PTSUNNY   59  37  44 S8        30.15F
IMPERIAL       SUNNY     55  37  50 VRB3      30.16F
NORTH PLATTE   MOSUNNY   58  38  47 S3        30.16F
MCCOOK         FAIR      58  39  49 E5        30.15F

...EASTERN NEBRASKA...

CITY           SKY/WX    TMP DP  RH WIND       PRES   REMARKS
NORFOLK        SUNNY     65  30  27 E8        30.14F
SO SIOUX CITY  SUNNY     67  31  26 E13G21    30.16F
TEKAMAH        SUNNY     68  30  24 E12       30.14F
COLUMBUS       SUNNY     67  34  29 E6        30.15S
ALBION         SUNNY     67  33  29 SE9       30.15S
OMAHA EPPLEY   PTSUNNY   68  32  26 E8G18     30.13F
OFFUTT AFB     MOSUNNY   69  33  27 NE8       30.12F
MILLARD        CLOUDY    68  34  28 E7        30.13F
LINCOLN        PTSUNNY   66  34  30 E10       30.14F
NEBRASKA CITY  CLOUDY    68  36  30 NE10      30.11S
BEATRICE       CLOUDY    67  38  34 E8        30.12S
FALLS CITY     MOSUNNY   69  38  32 E13G22    30.08S

...NORTHERN KANSAS...

CITY           SKY/WX    TMP DP  RH WIND       PRES   REMARKS
GOODLAND       SUNNY     55  35  47 E6        30.15F
HILL CITY      MOSUNNY   60  38  43 SE5       30.15S
NORTON         PTCLDY    61  37  41 E3        30.15S
PHILLIPSBURG   SUNNY     66  34  30 E8        30.14S
SMITH CENTER   SUNNY     64  36  34 NE9       30.13F
BELOIT         CLOUDY    57  39  51 NE10      30.13S
HAYS           MOSUNNY   65  36  34 E8        30.12F
RUSSELL        PTSUNNY   61  41  47 NE14      30.12R
CONCORDIA      CLOUDY    59  38  45 NE8       30.13S
SALINA         PTSUNNY   61  41  47 N13       30.12S
TOPEKA         SUNNY     67  44  43 NE17      30.06R



USA.gov is the U.S. government's official web portal to all federal, state and local government web resources and services.